Theta_e
339 331 336 331 333 336 337 336 332 334 335 336 333 334 334 333 335 335 334 333 333 334 333 336 337 339 340 339 337 337 336 338 338 335 337 335 336 336 333 335 331 332 334
339 338 330 332 333 334 337 341 338 334 336 337 336 335 336 337 338 337 336 337 337 337 337 336 332 333 329 328 331 333 335 336 336 334 335 334 334 339 338 335 332 340 339
339 340 335 332 334 333 337 341 337 340 334 337 337 336 336 337 338 339 337 337 338 337 337 340 340 328 327 333 336 335 336 336 337 337 338 340 341 340 332 335 335 336 335
341 340 336 335 334 333 341 339 332 333 332 332 333 332 334 334 334 338 337 336 335 335 338 336 334 338 332 327 330 330 335 337 332 335 337 340 342 342 332 331 332 334 335
341 340 337 335 340 334 338 330 326 327 335 334 331 332 335 335 335 336 335 333 336 336 336 336 335 337 336 340 342 341 338 339 336 334 332 339 338 330 327 326 327 333 328
340 340 339 336 334 333 331 333 331 332 345 335 344 336 331 335 336 332 339 331 336 336 332 336 338 336 337 338 342 342 337 338 343 341 339 333 333 329 333 335 337 325 334
340 340 339 338 334 331 328 338 340 334 330 329 330 327 337 337 334 330 337 339 328 334 333 330 337 336 335 341 341 343 343 342 343 343 342 338 334 333 331 332 335 334 334
333 337 340 340 336 332 331 339 337 331 331 334 332 335 333 338 340 336 329 325 323 324 337 333 331 334 334 338 343 343 343 343 342 341 340 340 334 336 336 337 338 332 331
332 330 335 340 339 331 332 338 333 328 329 331 334 329 330 330 332 330 332 334 335 330 323 327 331 327 327 331 341 342 342 341 343 343 338 337 333 333 337 334 333 330 330
332 328 329 338 339 334 332 333 344 330 328 329 328 328 329 327 327 326 328 332 331 332 335 328 324 330 333 330 329 341 340 338 340 340 336 341 337 331 332 333 334 332 331
330 328 328 333 340 334 333 347 336 330 330 333 331 331 331 330 330 329 333 337 337 337 331 332 331 327 328 333 332 332 330 332 339 339 339 341 339 335 333 330 332 334 335
332 329 330 330 334 334 332 333 332 329 329 328 328 328 331 336 337 337 337 336 336 334 336 332 331 332 332 332 332 332 332 332 336 338 340 340 342 340 335 328 330 332 333
330 328 328 329 330 331 329 328 328 327 330 335 337 335 333 336 338 341 342 343 338 334 340 336 335 331 334 333 333 334 331 332 334 340 342 340 341 341 339 328 326 330 332
337 330 327 327 327 327 330 342 338 335 341 343 343 343 340 344 342 341 345 345 342 338 338 340 339 337 334 334 342 343 341 331 331 331 337 335 340 341 340 339 329 325 330
343 332 335 330 333 328 345 344 340 344 346 346 346 346 347 346 346 347 346 347 345 343 345 343 341 342 343 344 343 342 340 335 338 338 342 336 339 342 338 341 341 328 327
344 338 343 341 343 342 344 344 344 344 345 346 347 347 347 348 348 347 346 346 345 345 346 346 345 343 343 344 344 343 342 339 340 342 342 337 339 341 343 342 342 341 337
342 343 343 343 344 345 343 345 345 345 346 345 345 346 347 346 347 349 348 347 347 347 346 346 347 346 345 344 344 343 342 341 342 343 342 342 340 341 343 343 344 343 342
343 342 342 344 344 345 344 346 347 347 346 346 345 345 347 346 347 343 342 344 346 346 347 346 346 346 346 345 345 345 344 342 343 341 344 343 343 342 343 343 342 342 342
343 343 342 344 344 345 344 346 347 347 347 346 345 345 347 343 341 346 341 344 344 346 348 347 347 346 346 346 346 346 345 344 344 344 343 344 344 343 343 344 343 343 342
342 342 342 343 344 345 346 345 348 347 344 344 344 342 347 347 345 340 343 344 345 346 346 344 342 343 343 345 347 347 348 347 346 345 344 343 343 343 344 344 343 344 343
342 342 342 343 344 345 345 346 349 346 348 344 345 345 344 345 345 346 344 344 346 346 342 339 344 347 345 343 346 347 347 348 347 347 346 343 342 342 343 343 343 343 343
341 343 342 344 345 345 346 346 347 348 349 348 349 346 345 345 347 344 343 341 341 342 340 340 343 345 343 343 346 346 346 346 346 347 347 345 345 343 342 343 344 344 343
341 343 346 344 346 346 348 344 349 351 348 348 349 348 346 348 347 345 347 341 342 340 338 341 344 345 343 344 345 346 346 347 347 347 347 345 345 345 343 343 343 344 344
342 344 347 346 347 342 344 344 350 349 349 349 346 348 348 347 349 345 345 340 336 334 339 342 342 342 344 345 344 348 348 346 346 347 347 345 344 344 343 343 344 344 346
345 345 349 349 349 345 344 345 347 349 351 349 347 348 346 346 344 342 336 333 334 333 338 341 341 342 344 344 345 346 348 349 348 347 348 347 346 345 345 343 344 345 345
346 346 352 353 351 347 346 347 351 352 351 350 351 348 347 344 341 333 328 330 334 333 334 338 340 340 343 344 344 344 346 348 349 350 348 347 347 347 347 346 346 346 346
Wind_Speed
21 20 19 19 19 20 20 19 18 18 19 18 19 20 19 18 16 14 15 14 12 11 10 9 7 7 6 5 5 5 5 8 8 9 10 10 10 9 9 8 8 9 9
24 21 20 20 19 19 20 19 19 19 21 21 21 19 18 17 16 15 13 13 12 10 9 9 8 8 8 8 9 9 9 9 9 9 9 9 9 9 7 7 8 9 9
24 22 21 19 19 19 19 17 18 18 19 19 18 17 15 14 14 14 12 12 11 10 11 10 9 10 11 11 12 11 11 10 10 10 9 9 9 9 7 7 7 7 7
24 24 22 20 20 20 19 16 16 16 17 17 16 15 15 14 14 13 12 12 12 11 11 11 10 10 11 12 11 11 12 11 11 11 10 8 8 7 4 7 7 7 7
25 25 23 21 20 20 18 16 16 17 17 15 15 14 14 13 13 13 12 12 11 11 11 11 11 11 11 13 12 13 14 11 11 11 9 8 7 4 5 7 8 7 7
25 25 23 21 20 19 18 17 16 16 15 14 14 13 13 12 11 11 11 10 11 11 10 10 10 11 11 11 11 11 11 11 8 8 8 8 6 5 7 8 8 7 9
25 24 23 21 19 19 18 17 16 15 14 13 12 12 12 11 10 10 9 8 9 10 10 10 11 11 12 12 11 11 9 7 7 6 5 5 5 4 6 7 7 8 8
23 23 22 20 19 19 18 16 15 14 13 12 11 11 10 10 10 7 7 7 7 8 9 9 10 11 12 12 10 9 7 5 8 6 4 4 4 3 5 5 7 7 8
20 21 22 21 19 19 18 16 14 13 11 11 10 10 9 8 8 6 6 6 6 6 8 9 11 11 11 12 12 9 7 4 10 8 4 4 3 3 5 5 6 7 8
19 19 21 22 21 21 19 16 14 11 9 9 9 8 6 6 6 5 5 5 6 8 8 8 10 13 14 12 12 13 10 8 7 6 6 5 4 5 6 6 7 8 9
20 19 20 22 20 20 17 14 12 9 8 6 6 6 5 3 4 4 4 4 4 7 9 10 10 11 14 14 13 14 15 14 11 9 7 8 7 6 5 6 8 9 10
20 20 19 19 19 18 17 13 10 8 7 5 5 4 4 3 3 5 5 6 8 9 10 12 12 12 13 13 13 15 16 16 16 13 10 8 11 10 8 7 9 10 11
17 18 18 17 17 16 13 11 10 8 8 7 6 5 6 6 7 8 8 9 10 11 10 12 17 17 15 14 14 15 17 19 18 18 16 12 14 12 12 9 10 11 12
18 15 16 16 16 15 14 8 8 10 8 7 4 5 8 7 9 10 9 10 12 12 13 10 12 14 18 18 16 17 21 22 21 19 19 18 16 16 15 14 12 12 13
17 17 16 18 16 18 15 10 10 9 6 7 8 7 7 10 11 11 11 14 16 16 14 13 13 14 16 16 16 15 16 23 21 20 19 20 20 18 19 17 16 15 14
19 20 17 18 17 18 15 13 10 10 9 8 10 10 11 12 12 14 12 14 17 16 13 10 12 15 17 17 17 18 17 19 23 23 21 22 22 19 18 20 18 18 19
15 20 21 19 19 17 15 14 13 11 10 9 7 7 10 13 15 16 18 18 16 17 15 12 15 16 18 18 19 20 20 22 23 23 22 23 25 23 20 22 19 22 21
26 17 19 23 22 18 16 15 14 15 13 12 11 12 10 13 14 13 16 21 22 20 17 14 15 17 18 19 19 19 20 22 22 24 23 26 27 27 26 24 22 22 23
26 25 13 23 24 20 15 15 15 16 19 17 15 14 13 9 8 14 19 22 19 19 15 13 12 15 19 20 20 20 19 19 23 25 25 26 27 28 28 29 27 24 24
25 20 20 22 24 22 18 15 15 14 17 22 21 16 14 10 10 14 16 15 9 12 9 11 13 14 17 20 21 22 24 26 25 23 26 27 28 30 29 29 28 28 25
27 21 20 24 26 26 22 21 16 15 12 13 12 9 8 7 7 10 13 9 6 4 7 11 13 14 14 17 20 22 21 24 27 28 27 27 29 29 31 31 30 29 28
29 20 21 21 27 27 23 16 16 13 12 13 11 11 7 6 7 9 11 5 5 6 11 12 11 12 15 14 16 19 18 22 22 24 25 27 28 30 30 32 32 30 30
35 25 19 24 23 24 21 16 15 12 10 8 5 6 6 5 5 7 6 3 7 9 10 9 10 11 15 15 14 15 11 8 11 11 15 16 19 25 29 28 31 34 32
32 25 18 22 20 21 22 16 14 11 10 7 4 5 4 4 4 4 4 6 10 11 9 7 7 11 12 16 18 20 19 21 17 9 9 9 10 12 21 25 23 28 31
30 27 18 18 18 19 22 16 12 11 10 8 7 6 5 4 3 4 7 7 7 7 7 8 9 11 11 15 14 18 19 17 15 24 20 23 23 13 6 13 16 19 23
32 29 20 18 16 19 22 18 12 9 9 9 8 6 4 2 2 6 6 7 8 8 8 9 10 12 12 13 13 14 17 13 15 15 20 26 28 25 20 19 19 18 18
Wind_Direction
163 158 151 142 134 131 127 122 119 120 124 128 128 130 133 133 135 139 141 144 147 146 142 152 160 152 150 147 147 141 139 129 133 129 133 139 137 133 129 130 128 123 113
156 158 151 147 141 138 133 128 123 123 125 125 127 128 131 134 138 137 141 143 133 138 136 142 145 141 139 130 131 136 137 135 130 129 135 139 145 140 132 133 132 125 123
159 159 157 154 147 144 138 136 132 128 130 132 131 130 129 132 138 139 134 136 136 139 140 135 133 130 136 133 131 132 136 132 132 130 137 140 145 141 120 143 141 137 135
160 161 157 155 152 147 139 137 134 136 136 139 138 136 137 132 137 141 135 138 144 140 141 143 143 137 135 137 138 139 137 135 139 140 139 149 160 153 134 153 152 143 146
162 162 160 156 151 147 142 140 135 138 137 139 139 136 136 135 137 139 146 145 143 140 139 140 146 147 146 138 132 129 139 140 130 134 139 142 141 162 148 136 140 143 148
160 161 163 158 153 152 151 147 139 139 141 144 142 147 144 143 141 147 146 146 149 147 148 149 153 156 158 152 146 140 142 156 165 144 133 143 143 152 156 151 145 148 147
160 164 165 163 160 159 157 154 149 144 142 143 146 148 148 152 147 145 152 155 155 159 154 157 161 162 163 160 158 147 148 166 170 162 151 133 134 150 160 159 154 158 157
164 167 168 168 167 166 163 159 158 157 153 152 150 151 155 153 153 165 156 161 170 173 169 167 167 172 173 175 176 172 167 193 191 151 163 165 134 156 173 183 179 177 176
172 172 172 175 174 172 170 169 165 160 160 159 161 161 160 164 169 171 171 181 191 192 192 190 179 176 180 188 196 198 199 196 176 182 187 171 167 196 206 212 209 198 193
178 181 179 178 180 179 178 175 170 168 167 168 168 165 166 179 184 187 195 212 213 216 207 205 199 192 190 192 208 215 222 228 219 198 199 193 215 212 215 214 220 216 204
178 183 184 184 182 185 183 181 183 179 179 186 181 183 191 202 219 227 231 257 280 239 232 223 220 211 207 207 207 220 228 233 229 223 220 228 223 222 217 212 215 223 217
182 181 188 189 188 189 191 192 186 189 198 217 220 227 211 223 242 253 267 275 275 281 254 235 232 230 224 221 221 220 221 229 230 226 223 240 232 244 250 227 220 224 229
178 185 189 190 191 192 190 190 188 190 203 219 228 231 229 235 246 265 283 292 288 279 275 254 240 241 239 239 245 238 230 225 230 230 237 239 235 241 248 243 235 227 228
180 187 189 190 192 188 175 182 197 190 201 210 212 233 237 259 271 278 295 296 283 267 256 258 253 253 251 248 251 253 240 228 227 232 234 244 242 239 239 239 241 235 237
181 179 180 182 180 180 185 180 178 190 229 258 254 262 273 271 275 282 297 301 287 276 261 248 261 257 252 256 251 255 243 225 228 230 241 238 243 243 233 236 233 236 234
188 184 188 190 186 187 196 198 200 218 237 267 252 258 275 287 287 281 301 304 303 293 269 277 276 266 256 253 256 257 254 235 237 239 241 231 237 249 249 251 245 241 238
214 210 203 204 202 202 205 209 214 229 243 258 265 276 279 281 294 285 280 285 293 306 300 279 274 271 265 260 260 258 260 256 251 248 243 239 241 244 250 248 251 241 241
195 219 235 216 213 212 214 219 229 235 241 255 258 276 289 306 291 299 302 296 291 288 290 286 277 278 274 269 267 265 259 260 259 255 251 245 246 242 247 248 249 240 243
211 224 239 218 219 219 219 227 234 244 249 255 262 274 284 307 324 317 318 307 285 280 285 301 290 289 286 283 281 275 269 267 260 259 257 252 247 249 250 248 250 249 248
218 224 242 215 216 218 219 225 244 246 249 249 260 268 286 292 311 321 320 324 300 267 272 302 306 300 298 300 296 281 272 265 262 260 256 254 251 251 251 250 247 249 252
217 232 230 216 211 212 216 224 241 245 236 232 238 258 294 282 313 331 341 350 15 342 356 323 315 310 314 311 299 295 286 270 262 259 257 254 253 251 248 248 246 245 247
216 227 225 222 215 216 222 242 247 243 230 240 249 251 284 286 322 332 336 347 33 1 336 319 315 305 328 327 308 306 303 297 284 263 259 254 256 254 253 248 246 247 245
212 225 235 228 224 228 226 237 244 248 250 283 243 251 255 259 314 332 331 316 326 323 316 321 319 320 318 326 323 298 292 276 301 292 259 256 260 251 248 257 253 251 255
218 222 227 232 243 227 220 226 237 255 262 245 234 207 238 259 300 310 2 332 327 327 322 329 336 337 322 329 329 328 316 273 266 274 258 242 269 272 251 248 262 256 258
218 219 220 226 231 219 214 229 230 251 250 231 226 240 260 266 281 339 342 328 327 332 336 336 335 343 340 343 338 342 332 309 270 257 259 260 265 272 288 258 276 274 261
216 216 218 215 215 212 217 222 219 243 240 222 233 236 272 354 18 6 10 356 351 346 347 356 360 3 360 355 354 351 354 326 295 274 260 262 272 271 268 269 274 278 278